Kosmos-1417

operational
NORAD ID: 13617 Int'l Des: 1982-102 Owner: VMF Country: SU
LEOCIRCULARPOLAR

Über Kosmos-1417

Beschreibung wird geladen...

Live-Position

3D-Globus wird geladen...

Nächste Überflüge

Höhenverlauf

Altitude vs Time

uPlot chart will show altitude changes over time

Zweizeiliger Elementsatz

1 13617U 82102A 26062.28676725 .00000082 00000-0 69159-4 0 9994
2 13617 82.9727 337.3437 0034608 3.9624 110.1603 13.75608816176393
Epoch: 3. März 2026 • Age: 35 hours

Aktueller Status

Höhe 1007.5 km
Geschwindigkeit 7.34 km/s
Subsatellitenpunkt 2.91°N, 172.88°W
Startdatum 19. Okt. 1982
Alter 43.3 years
Typ other

Technische Details

Klassifizierung Payload
Masse 800.00 kg
Trockenmasse 800.00 kg
Gesamtmasse 800.00 kg
Länge 5.00 m
Durchmesser 2.10 m
Spannweite 17.00 m
Form Cyl + Ant
Hersteller OAZ
Bus-Typ KAUR-1 11F627
Phasenstatus In Orbit
Besitzer/Staat VMF/SU

Große Konstellationen

Loading constellations...